FIN7AT EFHK-ESSA

Flight info

Callsign FIN7AT
Flight time 0h 46m
Altitude 32000
Route ADIVO Y365 POGOK DCT RUNGA N872 XILAN
Aircraft A319/M-SDE3FGHIRWY/LB1

Departure

Time 2026-04-23 16:45
Airport Helsinki Vantaa Airport (EFHK)

Arrival

Time 2026-04-23 17:32
Airport Stockholm-Arlanda Airport (ESSA)
Time Latitude Longitude Altitude Speed Heading
2026-04-23 16:15 60.31862 24.96994 164 ft 0 kts 242°
2026-04-23 16:33 60.31866 24.97011 163 ft 4 kts 243°
2026-04-23 16:33 60.31878 24.97059 163 ft 4 kts 248°
2026-04-23 16:34 60.31885 24.97110 163 ft 4 kts 277°
2026-04-23 16:34 60.31876 24.97142 163 ft 4 kts 333°
2026-04-23 16:34 60.31860 24.97158 163 ft 4 kts 333°
2026-04-23 16:34 60.31854 24.97165 163 ft 0 kts 333°
2026-04-23 16:37 60.31858 24.97161 163 ft 1 kts 333°
2026-04-23 16:38 60.31869 24.97149 163 ft 2 kts 333°
2026-04-23 16:38 60.31889 24.97129 163 ft 4 kts 333°
2026-04-23 16:38 60.31917 24.97100 163 ft 5 kts 332°
2026-04-23 16:38 60.31956 24.97058 163 ft 7 kts 332°
2026-04-23 16:39 60.32009 24.97003 163 ft 10 kts 333°
2026-04-23 16:39 60.32075 24.96933 163 ft 12 kts 331°
2026-04-23 16:39 60.32149 24.96847 164 ft 12 kts 329°
2026-04-23 16:39 60.32222 24.96760 165 ft 12 kts 329°
2026-04-23 16:40 60.32234 24.96633 167 ft 10 kts 234°
2026-04-23 16:40 60.32190 24.96536 168 ft 9 kts 227°
2026-04-23 16:40 60.32144 24.96434 168 ft 11 kts 227°
2026-04-23 16:40 60.32089 24.96314 167 ft 12 kts 227°
2026-04-23 16:41 60.32032 24.96188 168 ft 12 kts 227°
2026-04-23 16:41 60.31974 24.96061 170 ft 13 kts 227°
2026-04-23 16:41 60.31911 24.95922 168 ft 15 kts 227°
2026-04-23 16:41 60.31838 24.95760 169 ft 16 kts 228°
2026-04-23 16:42 60.31762 24.95594 170 ft 16 kts 226°
2026-04-23 16:42 60.31682 24.95418 169 ft 18 kts 228°
2026-04-23 16:42 60.31594 24.95222 169 ft 19 kts 227°
2026-04-23 16:42 60.31500 24.95016 168 ft 21 kts 228°
2026-04-23 16:43 60.31394 24.94782 164 ft 24 kts 227°
2026-04-23 16:43 60.31277 24.94524 159 ft 27 kts 228°
2026-04-23 16:43 60.31164 24.94275 158 ft 23 kts 227°
2026-04-23 16:43 60.31063 24.94053 158 ft 16 kts 227°
2026-04-23 16:44 60.31039 24.93857 159 ft 15 kts 292°
2026-04-23 16:44 60.31104 24.93716 159 ft 14 kts 321°
2026-04-23 16:44 60.31160 24.93701 160 ft 8 kts 42°
2026-04-23 16:44 60.31203 24.93797 160 ft 11 kts 47°
2026-04-23 16:45 60.31397 24.94218 161 ft 80 kts 47°
2026-04-23 16:45 60.31927 24.95384 175 ft 143 kts 47°
2026-04-23 16:45 60.32648 24.96977 662 ft 154 kts 44°
2026-04-23 16:45 60.33360 24.98580 1423 ft 153 kts 43°
2026-04-23 16:46 60.34077 25.00169 2180 ft 153 kts 42°
2026-04-23 16:46 60.34800 25.01762 2879 ft 157 kts 43°
2026-04-23 16:46 60.35590 25.03495 3305 ft 179 kts 43°
2026-04-23 16:46 60.36497 25.05475 3690 ft 205 kts 43°
2026-04-23 16:47 60.37525 25.07720 4221 ft 230 kts 43°
2026-04-23 16:47 60.38662 25.10212 4896 ft 249 kts 43°
2026-04-23 16:47 60.40043 25.12322 5855 ft 251 kts 20°
2026-04-23 16:47 60.41765 25.12810 6851 ft 254 kts 355°
2026-04-23 16:48 60.43504 25.12525 7922 ft 254 kts 357°
2026-04-23 16:48 60.45231 25.11886 9022 ft 255 kts 337°
2026-04-23 16:48 60.46649 25.09729 10089 ft 261 kts 313°
2026-04-23 16:48 60.47477 25.06401 11027 ft 274 kts 289°
2026-04-23 16:49 60.47594 25.03719 11407 ft 298 kts 272°
2026-04-23 16:49 60.46866 24.97949 11942 ft 333 kts 259°
2026-04-23 16:49 60.46107 24.93450 12702 ft 341 kts 257°
2026-04-23 16:49 60.45295 24.88895 13512 ft 346 kts 257°
2026-04-23 16:50 60.44473 24.84272 14231 ft 351 kts 258°
2026-04-23 16:50 60.43652 24.79581 14930 ft 356 kts 259°
2026-04-23 16:50 60.42833 24.74806 15626 ft 360 kts 259°
2026-04-23 16:50 60.42020 24.69997 16325 ft 364 kts 260°
2026-04-23 16:51 60.41204 24.65119 17021 ft 368 kts 261°
2026-04-23 16:51 60.40392 24.60247 17696 ft 373 kts 261°
2026-04-23 16:51 60.39560 24.55259 18340 ft 377 kts 261°
2026-04-23 16:51 60.38709 24.50199 18929 ft 381 kts 261°
2026-04-23 16:52 60.37847 24.45106 19533 ft 385 kts 261°
2026-04-23 16:52 60.36973 24.39956 20155 ft 388 kts 261°
2026-04-23 16:52 60.36085 24.34755 20760 ft 392 kts 261°
2026-04-23 16:52 60.35189 24.29519 21348 ft 396 kts 261°
2026-04-23 16:53 60.34283 24.24238 21941 ft 400 kts 261°
2026-04-23 16:53 60.33367 24.18902 22533 ft 404 kts 261°
2026-04-23 16:53 60.32452 24.13598 23035 ft 407 kts 261°
2026-04-23 16:53 60.31498 24.08108 23584 ft 411 kts 261°
2026-04-23 16:54 60.30559 24.02716 24044 ft 414 kts 261°
2026-04-23 16:54 60.29664 23.97198 24486 ft 411 kts 266°
2026-04-23 16:54 60.29046 23.91585 24956 ft 411 kts 269°
2026-04-23 16:54 60.28444 23.85964 25419 ft 413 kts 269°
2026-04-23 16:55 60.27834 23.80271 25870 ft 416 kts 269°
2026-04-23 16:55 60.27220 23.74570 26324 ft 419 kts 269°
2026-04-23 16:55 60.26596 23.68824 26761 ft 421 kts 269°
2026-04-23 16:55 60.25959 23.63030 27205 ft 424 kts 269°
2026-04-23 16:56 60.25314 23.57212 27638 ft 427 kts 269°
2026-04-23 16:56 60.24660 23.51347 27856 ft 429 kts 269°
2026-04-23 16:56 60.24000 23.45481 28078 ft 431 kts 269°
2026-04-23 16:56 60.23338 23.39600 28545 ft 433 kts 269°
2026-04-23 16:57 60.22669 23.33659 28923 ft 435 kts 269°
2026-04-23 16:57 60.21999 23.27694 29358 ft 438 kts 269°
2026-04-23 16:57 60.21324 23.21704 29777 ft 440 kts 269°
2026-04-23 16:57 60.20643 23.15691 30140 ft 443 kts 269°
2026-04-23 16:58 60.19951 23.09629 30442 ft 446 kts 269°
2026-04-23 16:58 60.19249 23.03536 30740 ft 449 kts 268°
2026-04-23 16:58 60.18539 22.97408 31056 ft 452 kts 268°
2026-04-23 16:58 60.17820 22.91243 31376 ft 454 kts 268°
2026-04-23 16:59 60.17106 22.85144 31706 ft 455 kts 268°
2026-04-23 16:59 60.16382 22.78956 31875 ft 453 kts 268°
2026-04-23 16:59 60.15660 22.72893 31912 ft 437 kts 268°
2026-04-23 16:59 60.14953 22.67066 31910 ft 426 kts 268°
2026-04-23 17:00 60.13591 22.55599 31913 ft 420 kts 269°
2026-04-23 17:00 60.12248 22.44187 31922 ft 420 kts 268°
2026-04-23 17:01 60.10889 22.32805 31926 ft 420 kts 268°
2026-04-23 17:01 60.09506 22.21432 31925 ft 420 kts 268°
2026-04-23 17:02 60.08106 22.10055 31924 ft 420 kts 268°
2026-04-23 17:02 60.06707 21.98749 31910 ft 420 kts 268°
2026-04-23 17:03 60.05296 21.87408 31914 ft 420 kts 268°
2026-04-23 17:03 60.03875 21.76052 31919 ft 421 kts 268°
2026-04-23 17:04 60.02444 21.64702 31924 ft 421 kts 267°
2026-04-23 17:04 60.00996 21.53321 31953 ft 422 kts 267°
2026-04-23 17:05 59.99529 21.41971 31953 ft 421 kts 266°
2026-04-23 17:05 59.98027 21.30651 31958 ft 422 kts 266°
2026-04-23 17:06 59.97246 21.25043 31730 ft 416 kts 265°
2026-04-23 17:06 59.96461 21.19535 31472 ft 411 kts 265°
2026-04-23 17:06 59.95678 21.14057 31213 ft 408 kts 265°
2026-04-23 17:06 59.94907 21.08628 30967 ft 406 kts 266°
2026-04-23 17:07 59.94144 21.03211 30727 ft 405 kts 266°
2026-04-23 17:07 59.93387 20.97816 30483 ft 403 kts 266°
2026-04-23 17:07 59.92629 20.92422 30237 ft 402 kts 266°
2026-04-23 17:07 59.91880 20.87135 29937 ft 401 kts 265°
2026-04-23 17:08 59.91121 20.81811 29651 ft 399 kts 265°
2026-04-23 17:08 59.90361 20.76506 29370 ft 397 kts 265°
2026-04-23 17:08 59.89603 20.71227 29093 ft 395 kts 265°
2026-04-23 17:08 59.88846 20.65962 28815 ft 394 kts 265°
2026-04-23 17:09 59.88093 20.60742 28542 ft 392 kts 265°
2026-04-23 17:09 59.87338 20.55540 28283 ft 388 kts 265°
2026-04-23 17:09 59.86587 20.50416 27920 ft 384 kts 265°
2026-04-23 17:09 59.85845 20.45341 27504 ft 380 kts 265°
2026-04-23 17:10 59.85111 20.40304 27090 ft 377 kts 265°
2026-04-23 17:10 59.84380 20.35311 26669 ft 375 kts 264°
2026-04-23 17:10 59.83646 20.30336 26239 ft 372 kts 264°
2026-04-23 17:10 59.82920 20.25412 25813 ft 370 kts 264°
2026-04-23 17:11 59.82199 20.20515 25355 ft 368 kts 264°
2026-04-23 17:11 59.81479 20.15649 24924 ft 366 kts 264°
2026-04-23 17:11 59.80759 20.10820 24466 ft 365 kts 264°
2026-04-23 17:11 59.80033 20.05975 23969 ft 363 kts 263°
2026-04-23 17:12 59.79315 20.01186 23553 ft 361 kts 263°
2026-04-23 17:12 59.78601 19.96419 23058 ft 360 kts 263°
2026-04-23 17:12 59.77887 19.91682 22606 ft 357 kts 263°
2026-04-23 17:12 59.77175 19.86976 22161 ft 355 kts 263°
2026-04-23 17:13 59.76474 19.82376 21727 ft 353 kts 262°
2026-04-23 17:13 59.75765 19.77735 21315 ft 350 kts 263°
2026-04-23 17:13 59.75063 19.73116 20888 ft 349 kts 263°
2026-04-23 17:13 59.74385 19.68517 20467 ft 346 kts 264°
2026-04-23 17:14 59.73749 19.63925 20043 ft 344 kts 264°
2026-04-23 17:14 59.73133 19.59350 19632 ft 343 kts 264°
2026-04-23 17:14 59.72522 19.54784 19219 ft 342 kts 264°
2026-04-23 17:14 59.71907 19.50227 18805 ft 342 kts 264°
2026-04-23 17:15 59.71287 19.45682 18396 ft 341 kts 264°
2026-04-23 17:15 59.70663 19.41154 17950 ft 341 kts 264°
2026-04-23 17:15 59.70037 19.36651 17542 ft 339 kts 263°
2026-04-23 17:15 59.69411 19.32194 17360 ft 330 kts 263°
2026-04-23 17:16 59.68798 19.27910 17269 ft 318 kts 263°
2026-04-23 17:16 59.68199 19.23722 17041 ft 313 kts 264°
2026-04-23 17:16 59.67617 19.19586 16702 ft 312 kts 264°
2026-04-23 17:16 59.67040 19.15462 16329 ft 311 kts 263°
2026-04-23 17:17 59.66461 19.11341 15974 ft 311 kts 263°
2026-04-23 17:17 59.65878 19.07222 15614 ft 311 kts 263°
2026-04-23 17:17 59.65490 19.04483 15352 ft 311 kts 263°
2026-04-23 17:17 59.64717 18.99046 14903 ft 310 kts 262°
2026-04-23 17:18 59.63543 18.90859 14192 ft 309 kts 262°
2026-04-23 17:18 59.62954 18.86767 13819 ft 309 kts 261°
2026-04-23 17:18 59.62365 18.82683 13434 ft 308 kts 261°
2026-04-23 17:19 59.61678 18.78661 13041 ft 315 kts 249°
2026-04-23 17:19 59.60432 18.75045 12639 ft 321 kts 239°
2026-04-23 17:19 59.59064 18.71572 12250 ft 320 kts 238°
2026-04-23 17:19 59.57691 18.68118 11867 ft 319 kts 238°
2026-04-23 17:20 59.56325 18.64685 11483 ft 317 kts 238°
2026-04-23 17:20 59.53632 18.57902 10736 ft 312 kts 238°
2026-04-23 17:21 59.50982 18.51230 9956 ft 305 kts 238°
2026-04-23 17:21 59.49679 18.47951 9493 ft 302 kts 238°
2026-04-23 17:21 59.47100 18.41417 8516 ft 302 kts 238°
2026-04-23 17:22 59.45817 18.38145 8098 ft 300 kts 238°
2026-04-23 17:22 59.43721 18.32815 7499 ft 293 kts 238°
2026-04-23 17:23 59.41244 18.26573 6800 ft 285 kts 238°
2026-04-23 17:23 59.40036 18.23542 6504 ft 280 kts 238°
2026-04-23 17:23 59.37679 18.17534 5868 ft 272 kts 244°
2026-04-23 17:24 59.37116 18.14165 5557 ft 256 kts 271°
2026-04-23 17:24 59.37114 18.10711 5297 ft 253 kts 277°
2026-04-23 17:24 59.37259 18.03850 4944 ft 251 kts 278°
2026-04-23 17:25 59.37413 17.97028 4647 ft 250 kts 278°
2026-04-23 17:25 59.37490 17.93668 4495 ft 241 kts 277°
2026-04-23 17:26 59.38529 17.87902 4246 ft 221 kts 325°
2026-04-23 17:26 59.41295 17.87381 4011 ft 198 kts
2026-04-23 17:27 59.43848 17.88310 3872 ft 182 kts
2026-04-23 17:27 59.45094 17.88755 3651 ft 182 kts
2026-04-23 17:27 59.46339 17.89201 3427 ft 182 kts
2026-04-23 17:27 59.47584 17.89647 3183 ft 183 kts
2026-04-23 17:28 59.48837 17.90097 2931 ft 183 kts
2026-04-23 17:28 59.50089 17.90547 2678 ft 183 kts
2026-04-23 17:28 59.51341 17.90997 2429 ft 182 kts
2026-04-23 17:28 59.52587 17.91445 2203 ft 180 kts
2026-04-23 17:29 59.53798 17.91882 1946 ft 175 kts
2026-04-23 17:29 59.54969 17.92304 1703 ft 165 kts
2026-04-23 17:29 59.57006 17.93041 1287 ft 131 kts
2026-04-23 17:30 59.57886 17.93358 1110 ft 126 kts
2026-04-23 17:30 59.59570 17.93971 779 ft 123 kts
2026-04-23 17:30 59.60418 17.94276 644 ft 125 kts
2026-04-23 17:31 59.61271 17.94583 447 ft 127 kts
2026-04-23 17:31 59.62151 17.94896 306 ft 129 kts
2026-04-23 17:31 59.63033 17.95230 154 ft 124 kts
2026-04-23 17:31 59.63756 17.95479 145 ft 83 kts 11°
2026-04-23 17:32 59.64042 17.95555 144 ft 20 kts 353°
2026-04-23 17:32 59.64134 17.95513 141 ft 12 kts 345°
2026-04-23 17:32 59.64228 17.95461 139 ft 12 kts 340°
2026-04-23 17:32 59.64307 17.95404 138 ft 13 kts 341°
2026-04-23 17:33 59.64383 17.95353 138 ft 12 kts 341°
2026-04-23 17:33 59.64464 17.95329 138 ft 12 kts
2026-04-23 17:33 59.64541 17.95291 138 ft 12 kts 299°
2026-04-23 17:33 59.64519 17.95137 138 ft 12 kts 238°
2026-04-23 17:34 59.64472 17.94987 138 ft 13 kts 237°
2026-04-23 17:34 59.64420 17.94823 138 ft 15 kts 238°
2026-04-23 17:34 59.64303 17.94462 138 ft 17 kts 238°
2026-04-23 17:35 59.64239 17.94259 138 ft 18 kts 238°
2026-04-23 17:35 59.64101 17.93826 138 ft 19 kts 237°
2026-04-23 17:35 59.64028 17.93596 138 ft 20 kts 238°
2026-04-23 17:36 59.63987 17.93337 138 ft 20 kts 275°
2026-04-23 17:36 59.64045 17.93087 138 ft 20 kts 299°
2026-04-23 17:36 59.64111 17.92834 138 ft 21 kts 297°
2026-04-23 17:36 59.64174 17.92595 138 ft 17 kts 297°
2026-04-23 17:37 59.64238 17.92478 138 ft 11 kts 10°
2026-04-23 17:37 59.64315 17.92471 138 ft 12 kts 13°
2026-04-23 17:37 59.64418 17.92663 138 ft 5 kts 52°
2026-04-23 17:38 59.64428 17.92689 138 ft 1 kts 52°
2026-04-23 17:38 59.64430 17.92693 138 ft 0 kts 52°